Home   Weather   Middlesbrough   Past weeks
Flag for United Kingdom

Past Weather in Middlesbrough, England, United Kingdom — Yesterday and Last 2 Weeks

Now
52 °F

Passing clouds.


Feels Like: 46 °F
Forecast: N/A
Wind: 18 mph from Southwest

Location: Tees-Side

Current Time: Mar 20, 2019 at 10:14:49 pm

Latest Report: Mar 20, 2019 at 9:50 pm


Visibility: N/A

Pressure: 30.36 "Hg

Humidity: 82%

Dew Point: 46 °F

Location of MiddlesbroughLocation

Past Weather in Middlesbrough — Graph

°F

Middlesbrough Temperature Yesterday

Maximum temperature yesterday: 54 °F (at 11:50 am)
Minimum temperature yesterday: 41 °F (at 6:20 am)
Average temperature yesterday: 49 °F

High & Low Weather Summary for the Past Weeks

 TemperatureHumidityPressure
High57 °F (Mar 20, 10:20 am)100% (Mar 9, 7:50 am)30.39 "Hg (Mar 9, 7:50 am)
Low28 °F (Mar 8, 6:50 am)47% (Mar 15, 1:20 pm)28.88 "Hg (Mar 6, 5:50 pm)
Average45 °F75%29.62 "Hg
* Reported Mar 5 9:20 pm — Mar 20 9:20 pm, Middlesbrough. Weather by CustomWeather, © 2019

Note: Actual official high and low records may vary slightly from our data, if they occured in-between our weather recording intervals... More about our weather records

Advertising

Middlesbrough Weather History for the Previous 24 Hours

Scroll right to see more
 ConditionsComfort  
Time TempWeatherWind HumidityBarometerVisibility
9:20 pm
Wed, Mar 20
50 °FPassing clouds.20 mph82%30.36 "HgN/A
8:50 pm50 °FPassing clouds.18 mph82%30.39 "HgN/A
8:20 pm50 °FPassing clouds.17 mph82%30.39 "HgN/A
7:50 pm50 °FPassing clouds.17 mph82%30.39 "HgN/A
7:20 pm52 °FPassing clouds.22 mph77%30.39 "HgN/A
6:50 pm52 °FPassing clouds.17 mph77%30.36 "HgN/A
6:20 pm52 °FPassing clouds.14 mph82%30.36 "HgN/A
5:50 pm54 °FPassing clouds.15 mph77%30.36 "HgN/A
5:20 pm54 °FScattered clouds.12 mph82%30.36 "HgN/A
4:50 pm54 °FScattered clouds.12 mph82%30.36 "HgN/A
4:20 pm54 °FScattered clouds.16 mph77%30.36 "HgN/A
3:50 pm57 °FScattered clouds.13 mph72%30.36 "HgN/A
3:20 pm57 °FScattered clouds.13 mph72%30.36 "HgN/A
2:50 pm55 °FScattered clouds.12 mph77%30.39 "HgN/A
2:20 pm55 °FScattered clouds.14 mph77%30.39 "HgN/A
1:50 pm54 °FScattered clouds.15 mph77%30.39 "HgN/A
1:20 pm55 °FScattered clouds.17 mph72%30.36 "HgN/A
12:50 pm57 °FScattered clouds.14 mph72%30.39 "HgN/A
12:20 pm54 °FScattered clouds.13 mph82%30.39 "HgN/A
11:50 am55 °FScattered clouds.17 mph72%30.39 "HgN/A
11:20 am55 °FScattered clouds.16 mph77%30.39 "HgN/A
10:50 am55 °FScattered clouds.15 mph72%30.39 "HgN/A
10:20 am57 °FScattered clouds.13 mph72%30.39 "HgN/A
9:50 am55 °FPassing clouds.14 mph77%30.36 "HgN/A
9:20 am54 °FPassing clouds.14 mph82%30.36 "HgN/A
8:50 am52 °FPassing clouds.8 mph88%30.36 "HgN/A
8:20 am50 °FPassing clouds.8 mph88%30.36 "HgN/A
7:50 am50 °FPassing clouds.6 mph88%30.33 "HgN/A
7:20 am50 °FPassing clouds.5 mph88%30.33 "HgN/A
6:50 am48 °FPassing clouds.6 mph94%30.33 "HgN/A
5:50 am50 °FPassing clouds.6 mph88%30.33 "HgN/A
Weather by CustomWeather, © 2019

See weather overview